Location: Dealu Mare
(46.0500°N, 22.8167°E)
Time: 20:41:25
(UTC+00:00)

Cosmos 1862 Rocket - Pass Details

Date: 15 January 2026
Orbit: 596 x 627 km, 82.5° (Epoch: 10 February)

Event Time Altitude Azimuth Distance (km) Brightness Sun altitude
Rises 05:15:09 0° 345° (NNW) 2,882 6.6 -8.9°
Reaches altitude 10° 05:17:26 10° 340° (NNW) 1,967 5.8 -8.6°
Maximum altitude 05:21:37 48° 267° (W) 792 3.8 -7.9°
Drops below altitude 10° 05:25:44 10° 193° (SSW) 1,936 6.2 -7.2°
Sets 05:27:58 0° 187° (S) 2,830 7.2 -6.9°
